[keps] orb09351.2l.amsat

Ray Hoad r.hoad at att.net
Thu Dec 17 19:42:25 PST 2009


SB KEPS @ AMSAT  $ORB09351.N
2Line Orbital Elements 09351.AMSAT

HR AMSAT ORBITAL ELEMENTS FOR AMATEUR SATELLITES IN NASA FORMAT
FROM WA5QGD FORT WORTH,TX December 17, 2009
Send Subscribe/unsubscribe to KEPS at 
http://www.amsat.org/mailman/listinfo/keps
BID: ORB09351.N

DECODE 2-LINE ELSETS WITH THE FOLLOWING KEY:
1 AAAAAU 00  0  0 BBBBB.BBBBBBBB  .CCCCCCCC  00000-0  00000-0 0  DDDZ
2 AAAAA EEE.EEEE FFF.FFFF GGGGGGG HHH.HHHH III.IIII JJ.JJJJJJJJKKKKKZ
KEY: A-CATALOGNUM B-EPOCHTIME C-DECAY D-ELSETNUM E-INCLINATION F-RAAN
G-ECCENTRICITY H-ARGPERIGEE I-MNANOM J-MNMOTION K-ORBITNUM Z-CHECKSUM

TO ALL RADIO AMATEURS BT

AO-07
1 07530U 74089B   09351.64335043 -.00000027  00000-0  10000-3 0  6563
2 07530 101.4135 009.4871 0011853 270.3211 089.6501 12.53577207605701
FO-29
1 24278U 96046B   09350.88591972 -.00000021  00000-0  16899-4 0  2011
2 24278 098.5233 200.1089 0349863 236.7028 120.0150 13.52946594658451
SO-33
1 25509U 98061B   09349.43685421  .00000069  00000-0  21285-5 0 06099
2 25509 031.4287 107.5870 0353803 123.2509 240.2564 14.28272870581761
RS-22
1 27939U 03042A   09350.63019888  .00000033  00000-0  15243-4 0 09646
2 27939 097.9161 218.5664 0012600 278.1446 081.8335 14.63365620332257
VO-52
1 28650U 05017B   09350.73157977  .00000476  00000-0  66630-4 0 03870
2 28650 097.7218 046.0397 0027753 151.2281 209.0500 14.81657206249674
SO-67
1 35870U 09049F   09351.69636703  .00000445  00000-0  21921-4 0  2673
2 35870 097.3599 040.0046 0011168 342.3195 164.3158 15.22886949 13843
XW-1
1 36122U 09072B   09351.81668790 -.00000045  00000-0  00000 0 0   119
2 36122 100.4984 048.8858 0007078 033.0791 327.0545 13.16281805   357
UO-11
1 14781U 84021B   09349.70834031  .00000281  00000-0  44503-4 0 01282
2 14781 098.0839 035.6321 0010222 110.0211 250.2182 14.79754460384678
AO-16
1 20439U 90005D   09350.87244367  .00000021  00000-0  23462-4 0 07756
2 20439 098.3062 311.2153 0010887 353.3541 006.7497 14.31842579039292
LO-19
1 20442U 90005G   09350.82975215  .00000041  00000-0  30669-4 0 06835
2 20442 098.2680 317.7174 0011568 348.4243 011.6675 14.32076165039458
AO-27
1 22825U 93061C   09351.56057320 -.00000088  00000-0 -17958-4 0  4104
2 22825 098.4632 299.4358 0009226 085.3611 274.8620 14.29280776846100
IO-26
1 22826U 93061D   09350.67847836  .00000006  00000-0  19101-4 0  1449
2 22826 098.4559 299.2526 0009876 082.1846 278.0458 14.29534847846083
GO-32
1 25397U 98043D   09351.64198502  .00000125  00000-0  73306-4 0   658
2 25397 098.3171 004.0658 0002104 083.7661 276.3757 14.23168905594226
NO-44
1 26931U 01043C   09350.46570941 -.00000019  00000-0  24941-4 0 03395
2 26931 067.0530 314.7354 0007070 267.4706 092.5574 14.29576967428638
SO-50
1 27607U 02058C   09350.66952320 -.00000149  00000-0 -18158-5 0 00565
2 27607 064.5571 190.8664 0045358 155.6024 204.7229 14.71481259375524
CO-55
1 27844U 03031E   09350.61634666  .00000066  00000-0  50894-4 0  7357
2 27844 098.7117 357.2036 0009934 342.3492 017.7353 14.20673214335162
CO-57
1 27848U 03031J   09350.54913490  .00000043  00000-0  40285-4 0 06861
2 27848 098.7165 356.2076 0009951 347.3964 012.6998 14.20470549335110
AO-51
1 28375U 04025K   09350.55781696  .00000012  00000-0  16633-4 0 05576
2 28375 098.0527 349.5531 0083692 292.3689 066.8642 14.40662665287217
CO-56
1 28941U 06005C   09297.68475575  .14491492  29743-5  25760-3 0  5565
2 28941 098.0955 138.9518 0011688 319.8691 040.7485 16.46998778207909
GENESAT1
1 29655U 06058C   09350.73253449  .00023260  00000-0  18201-3 0 09000
2 29655 040.0176 115.7587 0004911 043.8333 316.2871 15.70937684171131
CP3
1 31129U 07012N   09351.59387825  .00000141  00000-0  42926-4 0  4001
2 31129 097.9663 035.6531 0103364 076.8585 284.4126 14.52191534141500
CO-65
1 32785U 08021C   09351.83215884  .00000248  00000-0  38342-4 0  5537
2 32785 097.9232 054.0532 0015189 150.7703 209.4351 14.81557125 88633
KKS-1
1 33493U 09002B   09351.70056112  .00000298  00000-0  45680-4 0   327
2 33493 098.0698 104.8870 0020300 011.7725 348.3964 14.80799552 48627
SOHLA-1
1 33496U 09002E   09350.80976255  .00000030  00000-0  13229-4 0 09775
2 33496 098.0500 097.4030 0007723 064.7854 295.4146 14.69459634048098
NOAA-10
1 16969U 86073A   09351.04157716  .00000025  00000-0  28060-4 0  8765
2 16969 098.6754 016.5475 0012803 026.2597 333.9261 14.27401812209597
NOAA-11
1 19531U 88089A   09351.21980725  .00000187  00000-0  11915-3 0  8911
2 19531 098.7790 078.2999 0011116 310.0029 050.0173 14.14911148 95408
NOAA-12
1 21263U 91032A   09350.94158360  .00000015  00000-0  25236-4 0 03916
2 21263 098.7698 359.0854 0012272 340.4754 019.5954 14.25606800966431
MET-3/5
1 21655U 91056A   09350.39900956  .00000051  00000-0  10000-3 0 06962
2 21655 082.5570 077.7858 0014905 086.8069 273.4740 13.17018451881618
MET-2/21
1 22782U 93055A   09350.62715240  .00000006  00000-0 -82749-5 0  6446
2 22782 082.5491 037.2835 0021914 191.3045 168.7616 13.83640623822834
OKEAN-4
1 23317U 94066A   09350.30965075  .00000065  00000-0  49919-5 0 01016
2 23317 082.5381 164.5322 0023483 121.8759 238.4746 14.82746360819352
NOAA-14
1 23455U 94089A   09351.40021462 -.00000025  00000-0  10332-4 0  8671
2 23455 098.8954 068.2957 0009910 035.5130 324.6739 14.13774787771814
NOAA-15
1 25338U 98030A   09350.85117295  .00000159  00000-0  86830-4 0 01947
2 25338 098.6002 336.2184 0009871 243.8772 116.1400 14.24798075602786
RESURS
1 25394U 98043A   09350.12218927 -.00000033  00000-0  35837-5 0 03831
2 25394 098.3201 013.0449 0002280 052.1457 307.9931 14.24191346594291
FENGYUN1
1 25730U 99025A   09350.34486247  .00000797  00000-0  49136-3 0 09255
2 25730 098.7714 315.2109 0023768 056.8391 303.5063 14.08133113545957
OKEAN-0
1 25860U 99039A   09350.15094333  .00000041  00000-0  13645-4 0 08645
2 25860 097.8090 324.3309 0000941 042.2161 317.9123 14.73602627559946
NOAA-16
1 26536U 00055A   09350.83140893 -.00000255  00000-0 -11249-3 0 06738
2 26536 099.1764 358.9380 0011192 127.4646 232.7535 14.12539817476083
NOAA-17
1 27453U 02032A   09350.81757177  .00000125  00000-0  72565-4 0 06699
2 27453 098.4605 043.3620 0010944 313.4703 046.5539 14.24115162388741
NOAA-18
1 28654U 05018A   09350.81880379  .00000309  00000-0  19556-3 0 01511
2 28654 098.9284 292.8155 0014027 205.1437 154.9031 14.11312601235716
NOAA-19
1 33591U 09005A   09350.83820253  .00000179  00000-0  12322-3 0 03593
2 33591 098.7682 292.0267 0014968 086.3706 273.9206 14.11009081044191
HUBBLE
1 20580U 90037B   09351.11789052  .00000316  00000-0  11404-4 0  4905
2 20580 028.4720 348.3487 0003274 070.8937 289.2065 15.00866238877369
ISS
1 25544U 98067A   09351.83978130  .00019369  00000-0  12201-3 0  1918
2 25544 051.6444 082.8637 0008135 090.4642 008.4402 15.76670945634890
CO-58
1 28895U 05043F   09349.70424699  .00000113  00000-0  33158-4 0 04657
2 28895 098.0372 234.9884 0018622 137.9983 222.2634 14.59824611220219
FALCON
1 30776U 07006E   09349.67418475  .00000382  00000-0  30564-4 0 07255
2 30776 035.4332 078.1887 0001505 003.3904 356.6821 15.03393607152426
MAST
1 31126U 07012K   09351.69840610  .00000089  00000-0  30346-4 0  7563
2 31126 097.9647 037.8530 0095720 070.2237 290.9326 14.53539127141699
CAPE1
1 31130U 07012P   09350.67753082  .00000004  00000-0  11339-4 0  7682
2 31130 097.9671 034.6665 0103695 080.0761 281.2118 14.52114884141170
COMPASS
1 32787U 08021E   09350.71130591  .00000173  00000-0  28617-4 0 05492
2 32787 097.9216 052.7741 0016252 155.9382 204.2581 14.81714852088478
AAUSAT2
1 32788U 08021F   09349.65084125  .00000010  00000-0  80165-5 0 05380
2 32788 097.9211 051.8151 0015583 160.4385 199.7430 14.81843467088329
DO-64
1 32789U 08021G   09350.75134347  .00000595  00000-0  81800-4 0 05706
2 32789 097.9261 053.1994 0016093 155.2042 204.9947 14.81889729088484
CO-66
1 32791U 08021J   09351.72159844  .00000078  00000-0  16727-4 0  5359
2 32791 097.9227 053.8033 0016268 150.9385 209.2727 14.81527917 88589
RS-30
1 32953U 08025A   09350.82064820  .00000010  00000-0  00000 0 0  4775
2 32953 082.5009 143.0736 0019421 139.0929 221.1617 12.43003223 71088
TACSAT-3
1 35001U 09028A   09350.91510701  .00002986  00000-0  78891-4 0 01926
2 35001 040.4560 227.3020 0021986 079.0456 281.2834 15.39786787032513
PHARMSAT
1 35002U 09028B   09349.90478058  .00002521  00000-0  65942-4 0 01650
2 35002 040.4691 232.1590 0024949 076.0720 284.2870 15.40477773032368
HAWKSAT1
1 35003U 09028C   09350.97258063  .00005580  00000-0  13327-3 0 01705
2 35003 040.4612 224.2274 0023350 090.5495 269.8001 15.41721606032552
CP6
1 35004U 09028D   09350.96369657  .00006594  00000-0  15529-3 0 01710
2 35004 040.4625 224.1693 0023539 088.9949 271.3565 15.41935516032544
AEROCUB3
1 35005U 09028E   09351.89850303  .00009535  00000-0  22302-3 0  1677
2 35005 040.4716 219.1687 0023736 091.9698 268.3858 15.41783781 32688
DRAGNSAT
1 35690U 09038B   09351.49155758  .00055936  12285-4  19152-3 0  1426
2 35690 051.6360 074.5036 0003617 289.3331 070.7290 15.90167210 22198
POLLUX
1 35693U 09038E   09351.50290216  .00050050  00000-0  17367-3 0  1505
2 35693 051.6372 075.3579 0001778 220.4976 139.6425 15.88667074 22153
CASTOR
1 35694U 09038F   09351.53433688  .00021553  00000-0  93068-4 0  1320
2 35694 051.6394 077.1260 0003322 196.6808 163.4617 15.84189146 22131
METEOR-M
1 35865U 09049A   09350.66044659  .00000176  00000-0  10000-3 0   793
2 35865 098.7871 040.5251 0002599 154.8513 205.2734 14.21828345 12787
/EX






More information about the Keps mailing list